STARLINK-36120, 67016

Orbit data source: Space-Track

STARLINK-36120, 67016 is a payload satellite owned by SpaceX/Seattle (US) in LEO that was launched on Wed, 10 Dec 2025 UTC via an FALCON 9 launch vehicle from the Air Force Western Test Range (AFWTR). Payload-class satellites include a variety of spacecraft equipped with specific instruments for various scientific and technological missions. These include communications satellites like Starlink; space stations such as the ISS; scientific satellites like the Hubble; Earth observation satellites from companies like Planet Labs, Umbra, and HawkEye 360; GPS; miniature CubeSats for education and research; and military/defense satellites.

Loading next visibility...
Identifier
67016, 2025-293P
Orbit
LEO
Country
Flag of USUS
Related business
Manufacturer
SpaceX/Seattle
Mission
Operational Commercial Communications
Bus & Motor
STARLINK V2MO, Unknown motor
Mass
575 kg wet, ~530 kg dry
Launch date (UTC)
2025-12-10 (6 months ago)
Launch vehicle
FALCON 9
Launch site
Air Force Western Test Range (AFWTR)
Object type
Payload
Rocket body
Debris
Shape & HBR
Box + 2 Pan, 17.7 m
Radar Cross Section
36.964 m², Large (>1 m²)

Expand to show TLE details & history
Last TLE update: 10 hours ago

TLE from 10 hours ago
0 STARLINK-36120
1 67016U 25293P   26171.40933661  .00002784  00000-0  24096-3 0  9995
2 67016  70.0004 195.4842 0004291 265.4550  94.6119 14.98335978 30278
Epoch: 2026-06-20T09:49Z
TLE epoch observation values (Epoch: 2026-06-20T09:49:26.683Z)
Latitude
Longitude
139.49865°
Altitude
574.702 km
Speed
7.574 km/s
True Right ascension
13h 01m 56s
True Declination
0° 00' 00"
Sunlit
Object was in daylight at epoch
Visualization orbit readout
Latitude
Unknown
Longitude
Unknown
Altitude
Unknown
Speed
Unknown
Apparent Right ascension
Unknown
Apparent Declination
Unknown
Sunlit
N/A
Visualization observer readout
Local Sidereal Time
07:12:37
Azimuth
Unknown
Elevation
Unknown
Doppler factor
Unknown
Orbital elements
Apogee altitude
572.967 km
Perigee altitude
567.004 km
Semi-major axis
6,948.123 km
Eccentricity
0.00043
Inclination
70.0004°
RAAN
195.4842°
Arg. of periapsis
265.455°
True anomaly
94.66091°
Mean anomaly
94.6119°
Eccentric anomaly
94.63641°
Mean motion
3.7475 °/min
Orbital period
96.06 mins
BSTAR
0.00024096
Loading maneuver chart data...
Computing Atmospheric mass density...
Loading historical data...
Loading historical data...
Loading historical data...
Loading historical data...
Loading historical data...
Loading historical data...
Loading historical data...

Documentation

Showing up to 5 results
|